| time (UTC) | temp F | wind direction | speed MPH | gust MPH | rain 1hr in | rain 24hr in | rain mn in | humidity % | barometer mb |
| 20260831033048 | 71 | 327 | 0.0 | 0.0 | 0.00 | 0.00 | 0.00 | 91 | 1020.6 |
| 20260831031547 | 71 | 327 | 0.0 | 0.0 | 0.00 | 0.00 | 0.00 | 91 | 1020.5 |
| 20260831030053 | 71 | 327 | 0.0 | 0.0 | 0.00 | 0.00 | 0.00 | 91 | 1020.5 |
| 20260831024600 | 71 | 327 | 0.0 | 0.0 | 0.00 | 0.00 | 0.00 | 91 | 1020.6 |
| 20260831023045 | 71 | 327 | 0.0 | 0.0 | 0.00 | 0.00 | 0.00 | 91 | 1020.7 |
| 20260831021551 | 71 | 327 | 0.0 | 1.0 | 0.00 | 0.00 | 0.00 | 90 | 1020.8 |
| 20260831020045 | 71 | 327 | 0.0 | 0.0 | 0.00 | 0.00 | 0.00 | 90 | 1020.8 |
| 20260831014544 | 71 | 327 | 0.0 | 1.0 | 0.00 | 0.00 | 0.00 | 90 | 1020.8 |
| 20260831013048 | 72 | 327 | 0.0 | 0.0 | 0.00 | 0.00 | 0.00 | 90 | 1020.9 |
| 20260831011552 | 72 | 327 | 0.0 | 0.0 | 0.00 | 0.00 | 0.00 | 90 | 1020.7 |
| 20260831004543 | 73 | 327 | 0.0 | 0.0 | 0.00 | 0.00 | 0.00 | 89 | 1020.4 |
| 20260831003041 | 73 | 327 | 0.0 | 0.0 | 0.00 | 0.00 | 0.00 | 88 | 1020.2 |
| 20260831001542 | 74 | 327 | 0.0 | 0.0 | 0.00 | 0.00 | 0.00 | 87 | 1019.9 |
| 20260831000055 | 75 | 327 | 0.0 | 0.0 | 0.00 | 0.00 | 0.00 | 87 | 1019.7 |
| 20260830234541 | 75 | 327 | 0.0 | 0.0 | 0.00 | 0.00 | 0.00 | 86 | 1019.6 |
| 20260830233040 | 76 | 327 | 0.0 | 0.0 | 0.00 | 0.00 | 0.00 | 86 | 1019.5 |
| 20260830231543 | 76 | 327 | 0.0 | 0.0 | 0.00 | 0.00 | 0.00 | 85 | 1019.4 |
| 20260830230050 | 77 | 327 | 0.0 | 0.0 | 0.00 | 0.00 | 0.00 | 86 | 1019.3 |
| 20260830224539 | 78 | 327 | 0.0 | 1.0 | 0.00 | 0.00 | 0.00 | 82 | 1019.1 |
| 20260830223054 | 79 | 327 | 0.0 | 0.0 | 0.00 | 0.00 | 0.00 | 79 | 1019.2 |
| 20260830221539 | 81 | 327 | 0.0 | 0.0 | 0.00 | 0.00 | 0.00 | 76 | 1019.1 |
| 20260830220038 | 82 | 327 | 0.0 | 0.0 | 0.00 | 0.00 | 0.00 | 71 | 1018.9 |
| 20260830214538 | 83 | 327 | 0.0 | 1.0 | 0.00 | 0.00 | 0.00 | 70 | 1018.8 |
| 20260830213038 | 83 | 327 | 0.0 | 1.0 | 0.00 | 0.00 | 0.00 | 68 | 1018.6 |
| 20260830211535 | 83 | 327 | 0.0 | 1.0 | 0.00 | 0.00 | 0.00 | 68 | 1018.7 |
| 20260830210035 | 81 | 327 | 0.0 | 1.0 | 0.00 | 0.00 | 0.00 | 74 | 1018.8 |
| 20260830204533 | 81 | 327 | 0.0 | 1.0 | 0.00 | 0.00 | 0.00 | 74 | 1019.1 |
| 20260830203035 | 81 | 327 | 0.0 | 1.0 | 0.00 | 0.00 | 0.00 | 73 | 1019.0 |
| 20260830201533 | 80 | 327 | 0.0 | 3.0 | 0.00 | 0.00 | 0.00 | 71 | 1020.0 |
| 20260830200025 | 80 | 13 | 2.0 | 5.0 | 0.00 | 0.00 | 0.00 | 72 | 1020.6 |
| 20260830194523 | 80 | 355 | 1.0 | 6.0 | 0.00 | 0.00 | 0.00 | 73 | 1021.0 |
| 20260830193021 | 80 | 355 | 2.0 | 7.0 | 0.00 | 0.00 | 0.00 | 73 | 1021.2 |
| 20260830191521 | 80 | 360 | 2.0 | 6.0 | 0.00 | 0.00 | 0.00 | 71 | 1021.3 |
| 20260830190021 | 81 | 9 | 3.0 | 9.0 | 0.00 | 0.00 | 0.00 | 69 | 1021.5 |
| 20260830184525 | 82 | 360 | 0.0 | 8.0 | 0.00 | 0.00 | 0.00 | 67 | 1021.5 |
| 20260830183020 | 83 | 323 | 1.0 | 5.0 | 0.00 | 0.00 | 0.00 | 68 | 1021.7 |
| 20260830181517 | 83 | 275 | 3.0 | 6.0 | 0.00 | 0.00 | 0.00 | 67 | 1021.8 |
| 20260830180016 | 83 | 198 | 1.0 | 9.0 | 0.00 | 0.00 | 0.00 | 69 | 1021.7 |
| 20260830174520 | 83 | 181 | 1.0 | 8.0 | 0.00 | 0.00 | 0.00 | 67 | 1021.8 |
| 20260830173014 | 83 | 360 | 2.0 | 5.0 | 0.00 | 0.00 | 0.00 | 71 | 1022.1 |
| 20260830171512 | 82 | 187 | 2.0 | 5.0 | 0.00 | 0.00 | 0.00 | 70 | 1022.2 |
| 20260830170010 | 81 | 17 | 2.0 | 6.0 | 0.00 | 0.00 | 0.00 | 73 | 1022.3 |
| 20260830164509 | 81 | 277 | 2.0 | 5.0 | 0.00 | 0.00 | 0.00 | 74 | 1022.6 |
| 20260830163007 | 81 | 250 | 1.0 | 6.0 | 0.00 | 0.00 | 0.00 | 72 | 1022.6 |
| 20260830161505 | 81 | 196 | 3.0 | 7.0 | 0.00 | 0.00 | 0.00 | 72 | 1022.6 |
| 20260830160003 | 80 | 165 | 2.0 | 8.0 | 0.00 | 0.00 | 0.00 | 74 | 1022.5 |
| 20260830154600 | 79 | 160 | 3.0 | 7.0 | 0.00 | 0.00 | 0.00 | 74 | 1022.4 |
| 20260830153058 | 79 | 187 | 3.0 | 6.0 | 0.00 | 0.00 | 0.00 | 76 | 1022.1 |
| 20260830151607 | 78 | 163 | 1.0 | 7.0 | 0.00 | 0.00 | 0.00 | 77 | 1022.1 |
| 20260830150101 | 78 | 240 | 2.0 | 7.0 | 0.00 | 0.00 | 0.00 | 76 | 1021.8 |
| 20260830144551 | 77 | 206 | 2.0 | 6.0 | 0.00 | 0.00 | 0.00 | 79 | 1021.6 |
| 20260830143046 | 75 | 178 | 1.0 | 7.0 | 0.00 | 0.00 | 0.00 | 81 | 1021.4 |
| 20260830141544 | 74 | 221 | 2.0 | 7.0 | 0.00 | 0.00 | 0.00 | 82 | 1021.4 |
| 20260830140042 | 74 | 217 | 1.0 | 7.0 | 0.00 | 0.00 | 0.00 | 82 | 1021.5 |
| 20260830134543 | 73 | 198 | 3.0 | 5.0 | 0.00 | 0.00 | 0.00 | 83 | 1021.5 |
| 20260830133035 | 71 | 168 | 0.0 | 3.0 | 0.00 | 0.00 | 0.00 | 87 | 1021.5 |
| 20260830131534 | 69 | 150 | 0.0 | 2.0 | 0.00 | 0.00 | 0.00 | 89 | 1021.5 |
| 20260830130028 | 68 | 150 | 0.0 | 3.0 | 0.00 | 0.00 | 0.00 | 91 | 1021.7 |
| 20260830124525 | 67 | 150 | 0.0 | 1.0 | 0.00 | 0.00 | 0.00 | 91 | 1021.7 |
| 20260830123026 | 66 | 150 | 0.0 | 4.0 | 0.00 | 0.00 | 0.00 | 91 | 1021.7 |
| 20260830121519 | 65 | 117 | 0.0 | 0.0 | 0.00 | 0.00 | 0.00 | 90 | 1021.7 |
| 20260830120017 | 64 | 165 | 0.0 | 0.0 | 0.00 | 0.00 | 0.00 | 91 | 1021.7 |
| 20260830114519 | 63 | 165 | 0.0 | 0.0 | 0.00 | 0.00 | 0.00 | 91 | 1021.7 |
| 20260830113015 | 63 | 165 | 0.0 | 0.0 | 0.00 | 0.00 | 0.00 | 91 | 1021.5 |
| 20260830111517 | 62 | 166 | 0.0 | 0.0 | 0.00 | 0.00 | 0.00 | 91 | 1021.5 |
| 20260830110014 | 63 | 166 | 0.0 | 0.0 | 0.00 | 0.00 | 0.00 | 91 | 1021.5 |
| 20260830104514 | 63 | 165 | 0.0 | 0.0 | 0.00 | 0.00 | 0.00 | 91 | 1021.5 |
| 20260830103013 | 63 | 166 | 0.0 | 0.0 | 0.00 | 0.00 | 0.00 | 91 | 1021.4 |
| 20260830101512 | 64 | 166 | 0.0 | 0.0 | 0.00 | 0.00 | 0.00 | 91 | 1021.3 |
| 20260830100014 | 64 | 165 | 0.0 | 0.0 | 0.00 | 0.00 | 0.00 | 91 | 1021.3 |
| 20260830094512 | 63 | 166 | 0.0 | 0.0 | 0.00 | 0.00 | 0.00 | 91 | 1021.4 |
| 20260830093019 | 63 | 165 | 0.0 | 0.0 | 0.00 | 0.00 | 0.00 | 91 | 1021.3 |
| 20260830091515 | 63 | 166 | 0.0 | 0.0 | 0.00 | 0.00 | 0.00 | 91 | 1021.4 |
| 20260830090010 | 63 | 166 | 0.0 | 0.0 | 0.00 | 0.00 | 0.00 | 91 | 1021.3 |
| 20260830084533 | 63 | 165 | 0.0 | 0.0 | 0.00 | 0.00 | 0.00 | 91 | 1021.4 |
| 20260830083011 | 62 | 165 | 0.0 | 0.0 | 0.00 | 0.00 | 0.00 | 91 | 1021.4 |
| 20260830081508 | 62 | 165 | 0.0 | 0.0 | 0.00 | 0.00 | 0.00 | 91 | 1021.4 |
| 20260830080006 | 62 | 166 | 0.0 | 0.0 | 0.00 | 0.00 | 0.00 | 91 | 1021.6 |
| 20260830074506 | 62 | 165 | 0.0 | 0.0 | 0.00 | 0.00 | 0.00 | 91 | 1021.7 |
| 20260830073005 | 62 | 165 | 0.0 | 0.0 | 0.00 | 0.00 | 0.00 | 91 | 1021.7 |
| 20260830071505 | 62 | 165 | 0.0 | 0.0 | 0.00 | 0.00 | 0.00 | 91 | 1021.7 |
| 20260830070003 | 62 | 165 | 0.0 | 0.0 | 0.00 | 0.00 | 0.00 | 91 | 1021.8 |
| 20260830064504 | 62 | 166 | 0.0 | 0.0 | 0.00 | 0.00 | 0.00 | 91 | 1021.8 |
| 20260830063003 | 62 | 165 | 0.0 | 0.0 | 0.00 | 0.00 | 0.00 | 91 | 1022.0 |
| 20260830061501 | 62 | 165 | 0.0 | 0.0 | 0.00 | 0.00 | 0.00 | 91 | 1022.1 |
| 20260830060100 | 62 | 166 | 0.0 | 0.0 | 0.00 | 0.00 | 0.00 | 91 | 1022.1 |
| 20260830054604 | 62 | 165 | 0.0 | 0.0 | 0.00 | 0.00 | 0.00 | 91 | 1022.2 |
| 20260830053057 | 62 | 165 | 0.0 | 0.0 | 0.00 | 0.00 | 0.00 | 91 | 1022.0 |
| 20260830051558 | 63 | 165 | 0.0 | 0.0 | 0.00 | 0.00 | 0.00 | 91 | 1022.0 |
| 20260830050101 | 63 | 165 | 0.0 | 0.0 | 0.00 | 0.00 | 0.00 | 91 | 1021.8 |
| 20260830044552 | 63 | 166 | 0.0 | 0.0 | 0.00 | 0.00 | 0.00 | 90 | 1021.8 |
| 20260830043057 | 64 | 165 | 0.0 | 0.0 | 0.00 | 0.00 | 0.00 | 90 | 1021.7 |
| 20260830041550 | 64 | 165 | 0.0 | 0.0 | 0.00 | 0.00 | 0.00 | 90 | 1021.6 |
| 20260830040055 | 64 | 165 | 0.0 | 0.0 | 0.00 | 0.00 | 0.00 | 90 | 1021.7 |
| 20260830034546 | 65 | 165 | 0.0 | 0.0 | 0.00 | 0.00 | 0.00 | 89 | 1021.8 |